Weather Roundup
Issued by NWS

Home | Current Version | Previous Version | Text Only | Print | Product List | Glossary On
Versions: 1 2 3 4 5 6 7 8 9 10 11 12 13 14 15 16 17 18 19 20 21 22 23 24 25 26 27 28 29 30 31 32 33 34 35 36 37 38 39 40 41 42 43 44 45 46 47 48 49 50
602
NZUS93 KARX 101510
HRRWXR

CURRENT HOURLY OBSERVATIONS ACROSS
MUCH OF THE UPPER MISSISSIPPI VALLEY
NATIONAL WEATHER SERVICE LA CROSSE WI
900 AM CST WED FEB 10 2016


...SOUTHEAST MINNESOTA...


CITY           SKY/WX    TMP DP  RH WIND       PRES   REMARKS
ROCHESTER      CLOUDY     2  -4  76 NW8       30.07R WCI -12
ROCHESTER/MAYO FAIR       3  -3  74 NW5       30.09S WCI  -6
WINONA         MOSUNNY    5  -2  72 NW5       30.14R WCI  -4
AUSTIN         CLOUDY     3  -2  78 N7        30.07S WCI  -9
ALBERT LEA     CLOUDY     7   0  72 NE5       30.08R WCI  -2
DODGE CENTER   CLOUDY     3  -2  78 N6        30.07R WCI  -8
PRESTON        CLOUDY     1  -6  73 N8        30.07R WCI -13
OWATONNA       CLOUDY     3  -2  78 N3        30.09S
FARIBAULT        N/A      3  -2  78 CALM      30.11S
$$

...ELSEWHERE IN MINNESOTA...


CITY           SKY/WX    TMP DP  RH WIND       PRES   REMARKS
MINNEAPOLIS    CLOUDY     4  -5  66 CALM      30.14R
INTNL FALLS    CLOUDY   -13 -18  78 NE3       30.14R
DULUTH         CLOUDY    -7 -13  75 N7        30.05R WCI -21
RED WING       MOSUNNY    3  -6  66 N5        30.13S WCI  -6
REDWOOD FALLS  LGT SNOW   7   3  84 E6        30.10S FOG     WCI  -3
MANKATO        CLOUDY     7  -2  66 NE6       30.10S WCI  -3
WORTHINGTON    CLOUDY     9   5  85 E10       30.02S WCI  -6
FAIRMONT       CLOUDY     7   0  72 E6        30.06S WCI  -3
$$

...SOUTHWEST WISCONSIN...


CITY           SKY/WX    TMP DP  RH WIND       PRES   REMARKS
LA CROSSE      CLOUDY     3  -6  66 NW6       30.12R WCI  -8
PRAIRIE DU CHI MOSUNNY    6  -5  60 NW6       30.12S WCI  -5
BOSCOBEL       CLOUDY     6  -1  73 CALM      30.11S
LONE ROCK      NOT AVBL
PLATTEVILLE    SUNNY      5  -4  67 NW8       30.07R WCI  -8
FORT MC COY    MOSUNNY   -3  -8  78 CALM      30.08F
CAMP DOUGLAS   MOSUNNY    1  -4  78 NW6       30.05F WCI -10
VIROQUA        FAIR       0  -7  73 NW7       30.03S WCI -13
WIS DELLS      SUNNY      4  -5  65 N3        30.04S
$$

...ELSEWHERE IN WISCONSIN...


CITY           SKY/WX    TMP DP  RH WIND       PRES   REMARKS
MILWAUKEE      MOSUNNY   12  -1  56 NW13      30.01R WCI  -3
MADISON        MOSUNNY    6  -4  63 NW8       30.04S WCI  -7
GREEN BAY      SUNNY      9  -4  55 NW13      30.01R WCI  -7
EAU CLAIRE     CLOUDY     0  -7  72 NW6       30.09R WCI -12
BLACK RVR FLS  FAIR       2  -7  67 NW3       30.08S
MEDFORD        CLOUDY     0  -5  79 NW8       29.98R WCI -15
WAUSAU         CLOUDY     7  -2  66 N7        29.98S WCI  -5
WIS RAPIDS     CLOUDY     5  -5  63 N7        30.04R WCI  -7
MARSHFIELD     SUNNY      1  -7  68 NW12      30.00R WCI -16
RICE LAKE      CLOUDY    -2  -7  78 W5        30.10R WCI -12
$$

...NORTHEAST IOWA...


CITY           SKY/WX    TMP DP  RH WIND       PRES   REMARKS
WATERLOO       CLOUDY     6  -1  73 NW3       30.12R
DUBUQUE        MOSUNNY    6  -3  66 N10       30.06S WCI  -9
DECORAH        MOSUNNY    3  -6  66 N6        30.07R WCI  -8
MASON CITY     CLOUDY     6  -1  73 CALM      30.09S
CHARLES CITY   CLOUDY     5  -2  72 N6        30.10R WCI  -6
OELWEIN        MOSUNNY    5  -4  66 NW8       30.10R WCI  -8
$$

...ELSEWHERE IN IOWA...


CITY           SKY/WX    TMP DP  RH WIND       PRES   REMARKS
DES MOINES     LGT SNOW  16  11  80 VRB5      30.09F VSB 3/4 WCI   9
IOWA CITY      CLOUDY    11   1  64 NW9       30.15R WCI  -2
FORT DODGE     CLOUDY    10   5  79 E8        30.08S WCI  -1
MARSHALLTOWN   CLOUDY    10   2  69 N3        30.10S
CEDAR RAPIDS   CLOUDY     8   2  76 NW6       30.11R WCI  -2
$$

...NORTHERN ILLINOIS...


CITY           SKY/WX    TMP DP  RH WIND       PRES   REMARKS
CHICAGO-OHARE  MOSUNNY   12   2  64 NW15      30.03R WCI  -4
CHICAGO-MIDWAY MOSUNNY   13   0  56 NW12      30.04R WCI  -1
MOLINE         CLOUDY    12   0  58 NW9       30.12S WCI   0
ROCKFORD       MOSUNNY    9  -1  64 NW14      30.08R WCI  -7
PEORIA         MOSUNNY   12   2  64 NW8       30.13R WCI   0
$$

NOTE: "FAIR" INDICATES FEW OR NO CLOUDS BELOW 12,000 FEET WITH NO
SIGNIFICANT WEATHER AND/OR OBSTRUCTIONS TO VISIBILITY. WIND
SPEEDS ARE IN MILES-PER-HOUR.




USA.gov is the U.S. government's official web portal to all federal, state and local government web resources and services.